DAL2572 KSEA-KSAN

Flight info

Callsign DAL2572
Flight time 2h 12m
Altitude 33000
Route SUMMA2 SUMMA PAAGE Q11 PASKE HUULK COMIX2
Aircraft MD88/M-SDFGIRWY/S

Departure

Time 2026-05-07 07:13
Airport Seattle–Tacoma International Airport (KSEA)

Arrival

Time 2026-05-07 09:26
Airport San Diego International Airport (KSAN)
Time Latitude Longitude Altitude Speed Heading
2026-05-07 06:21 47.44187 -122.30186 393 ft 0 kts 39°
2026-05-07 06:58 47.44182 -122.30192 393 ft 3 kts 39°
2026-05-07 06:58 47.44170 -122.30206 392 ft 3 kts 39°
2026-05-07 06:58 47.44156 -122.30223 392 ft 3 kts 39°
2026-05-07 06:59 47.44142 -122.30239 391 ft 3 kts 39°
2026-05-07 06:59 47.44138 -122.30244 391 ft 0 kts 39°
2026-05-07 07:04 47.44139 -122.30242 391 ft 1 kts 44°
2026-05-07 07:04 47.44141 -122.30233 391 ft 1 kts 84°
2026-05-07 07:04 47.44136 -122.30225 391 ft 1 kts 137°
2026-05-07 07:04 47.44114 -122.30223 389 ft 6 kts 188°
2026-05-07 07:05 47.44054 -122.30240 389 ft 11 kts 194°
2026-05-07 07:05 47.44005 -122.30312 388 ft 11 kts 248°
2026-05-07 07:05 47.43992 -122.30444 386 ft 15 kts 269°
2026-05-07 07:05 47.43993 -122.30577 385 ft 10 kts 276°
2026-05-07 07:06 47.44033 -122.30635 385 ft 8 kts 351°
2026-05-07 07:06 47.44103 -122.30635 387 ft 12 kts
2026-05-07 07:06 47.44201 -122.30635 389 ft 16 kts
2026-05-07 07:06 47.44318 -122.30634 393 ft 18 kts
2026-05-07 07:07 47.44447 -122.30632 395 ft 20 kts
2026-05-07 07:07 47.44594 -122.30631 400 ft 21 kts
2026-05-07 07:07 47.44744 -122.30629 404 ft 23 kts
2026-05-07 07:07 47.44866 -122.30628 406 ft 17 kts
2026-05-07 07:08 47.44982 -122.30627 410 ft 16 kts
2026-05-07 07:08 47.45097 -122.30626 415 ft 17 kts
2026-05-07 07:08 47.45223 -122.30625 415 ft 19 kts
2026-05-07 07:08 47.45354 -122.30624 419 ft 19 kts
2026-05-07 07:09 47.45489 -122.30622 426 ft 20 kts
2026-05-07 07:09 47.45631 -122.30621 431 ft 21 kts 359°
2026-05-07 07:09 47.45785 -122.30620 434 ft 23 kts
2026-05-07 07:09 47.45952 -122.30619 429 ft 25 kts
2026-05-07 07:10 47.46127 -122.30617 431 ft 24 kts
2026-05-07 07:10 47.46284 -122.30616 434 ft 15 kts
2026-05-07 07:10 47.46347 -122.30621 430 ft 0 kts 340°
2026-05-07 07:10 47.46348 -122.30622 430 ft 0 kts 338°
2026-05-07 07:11 47.46349 -122.30623 431 ft 1 kts 336°
2026-05-07 07:11 47.46368 -122.30650 440 ft 7 kts 300°
2026-05-07 07:11 47.46371 -122.30732 438 ft 7 kts 246°
2026-05-07 07:12 47.46326 -122.30775 434 ft 9 kts 185°
2026-05-07 07:12 47.46290 -122.30776 434 ft 0 kts 181°
2026-05-07 07:12 47.46281 -122.30777 433 ft 11 kts 181°
2026-05-07 07:12 47.46020 -122.30780 430 ft 66 kts 180°
2026-05-07 07:13 47.45351 -122.30786 422 ft 125 kts 180°
2026-05-07 07:13 47.44350 -122.30814 411 ft 172 kts 179°
2026-05-07 07:13 47.43159 -122.30768 1123 ft 165 kts 176°
2026-05-07 07:13 47.42043 -122.30669 1931 ft 162 kts 179°
2026-05-07 07:14 47.40877 -122.30648 2521 ft 172 kts 183°
2026-05-07 07:14 47.39675 -122.30719 3248 ft 173 kts 183°
2026-05-07 07:14 47.38451 -122.30764 3897 ft 179 kts 181°
2026-05-07 07:14 47.37165 -122.30784 4357 ft 192 kts 179°
2026-05-07 07:15 47.35794 -122.30795 4856 ft 203 kts 182°
2026-05-07 07:15 47.34329 -122.30880 5292 ft 217 kts 181°
2026-05-07 07:15 47.32776 -122.30911 5789 ft 231 kts 182°
2026-05-07 07:15 47.31118 -122.30943 6269 ft 244 kts 182°
2026-05-07 07:16 47.29396 -122.30964 6868 ft 251 kts 182°
2026-05-07 07:16 47.27614 -122.30964 7388 ft 261 kts 182°
2026-05-07 07:16 47.25750 -122.30957 7786 ft 276 kts 182°
2026-05-07 07:16 47.23775 -122.30742 8134 ft 294 kts 167°
2026-05-07 07:17 47.21843 -122.29698 8792 ft 298 kts 160°
2026-05-07 07:17 47.19903 -122.28538 9334 ft 305 kts 160°
2026-05-07 07:17 47.17870 -122.27353 9498 ft 325 kts 161°
2026-05-07 07:17 47.15749 -122.26189 10296 ft 313 kts 162°
2026-05-07 07:18 47.13836 -122.25162 11759 ft 284 kts 163°
2026-05-07 07:18 47.11960 -122.24181 12119 ft 292 kts 165°
2026-05-07 07:18 47.09986 -122.23200 12415 ft 303 kts 165°
2026-05-07 07:18 47.07968 -122.22189 12664 ft 317 kts 165°
2026-05-07 07:19 47.05841 -122.21099 12883 ft 331 kts 164°
2026-05-07 07:19 47.03630 -122.19973 13135 ft 343 kts 164°
2026-05-07 07:19 47.01337 -122.18816 13445 ft 354 kts 165°
2026-05-07 07:19 46.98981 -122.17638 13887 ft 360 kts 165°
2026-05-07 07:20 46.96600 -122.16438 14408 ft 363 kts 165°
2026-05-07 07:20 46.94206 -122.15220 14898 ft 365 kts 164°
2026-05-07 07:20 46.91794 -122.13989 15359 ft 369 kts 165°
2026-05-07 07:20 46.89361 -122.12750 15834 ft 372 kts 165°
2026-05-07 07:21 46.86900 -122.11501 16275 ft 375 kts 165°
2026-05-07 07:21 46.84447 -122.10193 16690 ft 377 kts 163°
2026-05-07 07:21 46.81968 -122.08897 17044 ft 382 kts 166°
2026-05-07 07:21 46.79421 -122.07715 17470 ft 386 kts 167°
2026-05-07 07:22 46.76852 -122.06494 17933 ft 389 kts 166°
2026-05-07 07:22 46.74286 -122.05201 18398 ft 392 kts 165°
2026-05-07 07:22 46.71712 -122.03864 18784 ft 395 kts 165°
2026-05-07 07:22 46.69111 -122.02496 19171 ft 398 kts 165°
2026-05-07 07:23 46.66503 -122.01173 19592 ft 398 kts 166°
2026-05-07 07:23 46.63869 -121.99890 19956 ft 401 kts 166°
2026-05-07 07:23 46.61275 -121.98283 20291 ft 410 kts 150°
2026-05-07 07:23 46.58995 -121.95754 20719 ft 414 kts 141°
2026-05-07 07:24 46.56855 -121.93017 21090 ft 416 kts 140°
2026-05-07 07:24 46.54702 -121.90218 21565 ft 415 kts 140°
2026-05-07 07:24 46.52536 -121.87396 21854 ft 422 kts 140°
2026-05-07 07:24 46.50338 -121.84549 22220 ft 424 kts 140°
2026-05-07 07:25 46.45854 -121.78868 23107 ft 426 kts 141°
2026-05-07 07:25 46.43576 -121.76096 23479 ft 428 kts 147°
2026-05-07 07:25 46.41008 -121.74089 23802 ft 425 kts 166°
2026-05-07 07:26 46.38159 -121.73088 24197 ft 420 kts 174°
2026-05-07 07:26 46.35275 -121.72380 24543 ft 421 kts 175°
2026-05-07 07:26 46.32372 -121.71715 24863 ft 424 kts 175°
2026-05-07 07:26 46.29451 -121.71055 25176 ft 427 kts 175°
2026-05-07 07:27 46.26519 -121.70371 25498 ft 429 kts 175°
2026-05-07 07:27 46.23569 -121.69648 25840 ft 431 kts 174°
2026-05-07 07:27 46.20609 -121.68884 26162 ft 434 kts 174°
2026-05-07 07:27 46.17633 -121.68094 26490 ft 436 kts 173°
2026-05-07 07:28 46.14652 -121.67293 26821 ft 438 kts 173°
2026-05-07 07:28 46.11645 -121.66487 27155 ft 439 kts 173°
2026-05-07 07:28 46.08638 -121.65685 27459 ft 442 kts 174°
2026-05-07 07:28 46.05608 -121.64881 27739 ft 444 kts 173°
2026-05-07 07:29 46.02560 -121.64065 28026 ft 447 kts 173°
2026-05-07 07:29 45.99497 -121.63252 28337 ft 448 kts 174°
2026-05-07 07:29 45.96421 -121.62450 28637 ft 450 kts 174°
2026-05-07 07:29 45.93332 -121.61652 28921 ft 452 kts 173°
2026-05-07 07:30 45.90225 -121.60845 29228 ft 454 kts 173°
2026-05-07 07:30 45.87115 -121.60034 29504 ft 456 kts 173°
2026-05-07 07:30 45.83983 -121.59214 29771 ft 459 kts 174°
2026-05-07 07:30 45.80837 -121.58386 30088 ft 460 kts 174°
2026-05-07 07:31 45.77681 -121.57567 30344 ft 463 kts 174°
2026-05-07 07:31 45.74503 -121.56738 30537 ft 465 kts 173°
2026-05-07 07:31 45.71319 -121.55899 30805 ft 466 kts 173°
2026-05-07 07:31 45.68125 -121.55069 31010 ft 467 kts 174°
2026-05-07 07:32 45.64916 -121.54241 31218 ft 470 kts 174°
2026-05-07 07:32 45.61692 -121.53407 31436 ft 472 kts 174°
2026-05-07 07:32 45.58455 -121.52569 31661 ft 474 kts 174°
2026-05-07 07:32 45.55204 -121.51732 31886 ft 476 kts 174°
2026-05-07 07:33 45.51945 -121.50895 32151 ft 476 kts 174°
2026-05-07 07:33 45.48678 -121.50062 32352 ft 477 kts 173°
2026-05-07 07:33 45.45451 -121.49238 32611 ft 478 kts 173°
2026-05-07 07:33 45.42185 -121.48393 32858 ft 478 kts 174°
2026-05-07 07:34 45.38898 -121.47540 33001 ft 482 kts 174°
2026-05-07 07:34 45.32283 -121.45844 33082 ft 482 kts 174°
2026-05-07 07:35 45.25721 -121.44168 33094 ft 477 kts 174°
2026-05-07 07:35 45.19204 -121.42502 33115 ft 476 kts 174°
2026-05-07 07:36 45.12664 -121.40842 33107 ft 479 kts 174°
2026-05-07 07:36 45.06135 -121.39195 33090 ft 480 kts 174°
2026-05-07 07:37 44.99573 -121.37536 33086 ft 477 kts 173°
2026-05-07 07:37 44.93067 -121.35885 33095 ft 474 kts 173°
2026-05-07 07:38 44.86561 -121.34238 33096 ft 476 kts 174°
2026-05-07 07:38 44.80031 -121.32605 33085 ft 477 kts 173°
2026-05-07 07:39 44.73498 -121.30980 33088 ft 478 kts 173°
2026-05-07 07:39 44.66951 -121.29338 33089 ft 477 kts 173°
2026-05-07 07:40 44.60421 -121.27700 33083 ft 475 kts 173°
2026-05-07 07:40 44.53919 -121.26089 33090 ft 474 kts 173°
2026-05-07 07:41 44.47415 -121.24472 33098 ft 475 kts 173°
2026-05-07 07:41 44.40900 -121.22849 33093 ft 475 kts 173°
2026-05-07 07:42 44.34435 -121.21247 33093 ft 474 kts 173°
2026-05-07 07:42 44.27934 -121.19651 33138 ft 475 kts 173°
2026-05-07 07:43 44.21430 -121.18052 33136 ft 475 kts 173°
2026-05-07 07:43 44.14913 -121.16452 33156 ft 476 kts 173°
2026-05-07 07:44 44.08399 -121.14858 33150 ft 474 kts 172°
2026-05-07 07:44 44.01905 -121.13264 33154 ft 473 kts 172°
2026-05-07 07:45 43.95424 -121.11678 33143 ft 473 kts 172°
2026-05-07 07:45 43.88940 -121.10069 33133 ft 474 kts 172°
2026-05-07 07:46 43.82445 -121.08504 33129 ft 474 kts 173°
2026-05-07 07:46 43.75987 -121.06972 33118 ft 474 kts 172°
2026-05-07 07:47 43.69484 -121.05405 33118 ft 474 kts 172°
2026-05-07 07:47 43.62986 -121.03835 33119 ft 473 kts 172°
2026-05-07 07:48 43.56522 -121.02267 33117 ft 471 kts 172°
2026-05-07 07:48 43.50064 -121.00709 33124 ft 471 kts 172°
2026-05-07 07:49 43.43592 -120.99157 33125 ft 472 kts 172°
2026-05-07 07:49 43.37110 -120.97608 33131 ft 473 kts 172°
2026-05-07 07:50 43.30621 -120.96057 33135 ft 473 kts 172°
2026-05-07 07:50 43.24127 -120.94507 33119 ft 474 kts 172°
2026-05-07 07:51 43.18738 -120.93229 33128 ft 472 kts 172°
2026-05-07 07:51 43.12273 -120.91678 33131 ft 471 kts 171°
2026-05-07 07:52 43.05825 -120.90092 33130 ft 471 kts 171°
2026-05-07 07:52 42.99370 -120.88504 33133 ft 472 kts 171°
2026-05-07 07:53 42.92895 -120.86928 33135 ft 473 kts 171°
2026-05-07 07:53 42.86412 -120.85351 33129 ft 473 kts 171°
2026-05-07 07:54 42.79920 -120.83777 33125 ft 474 kts 171°
2026-05-07 07:54 42.73448 -120.82212 33133 ft 471 kts 171°
2026-05-07 07:55 42.66995 -120.80662 33134 ft 470 kts 171°
2026-05-07 07:55 42.60553 -120.79114 33133 ft 471 kts 171°
2026-05-07 07:56 42.54082 -120.77561 33132 ft 473 kts 171°
2026-05-07 07:56 42.47599 -120.75998 33132 ft 473 kts 171°
2026-05-07 07:57 42.41107 -120.74443 33135 ft 473 kts 171°
2026-05-07 07:57 42.34633 -120.72899 33128 ft 471 kts 171°
2026-05-07 07:58 42.28198 -120.71370 33132 ft 468 kts 171°
2026-05-07 07:58 42.21773 -120.69850 33137 ft 470 kts 171°
2026-05-07 07:59 42.15324 -120.68317 33183 ft 471 kts 171°
2026-05-07 07:59 42.08869 -120.66785 33184 ft 472 kts 171°
2026-05-07 08:00 42.02398 -120.65257 33171 ft 471 kts 171°
2026-05-07 08:00 41.95989 -120.63746 33151 ft 470 kts 171°
2026-05-07 08:01 41.89556 -120.62233 33147 ft 468 kts 171°
2026-05-07 08:01 41.83132 -120.60732 33126 ft 468 kts 170°
2026-05-07 08:02 41.76713 -120.59228 33120 ft 469 kts 171°
2026-05-07 08:02 41.70285 -120.57722 33129 ft 470 kts 171°
2026-05-07 08:03 41.63843 -120.56217 33132 ft 470 kts 170°
2026-05-07 08:03 41.57395 -120.54715 33121 ft 471 kts 171°
2026-05-07 08:04 41.50943 -120.53220 33114 ft 470 kts 170°
2026-05-07 08:04 41.47717 -120.52476 33216 ft 469 kts 170°
2026-05-07 08:04 41.44513 -120.51735 33222 ft 468 kts 170°
2026-05-07 08:05 41.38107 -120.50252 33212 ft 467 kts 170°
2026-05-07 08:05 41.31689 -120.48766 33189 ft 468 kts 170°
2026-05-07 08:06 41.25256 -120.47283 33158 ft 470 kts 170°
2026-05-07 08:06 41.18808 -120.45799 33127 ft 471 kts 170°
2026-05-07 08:07 41.12363 -120.44320 33099 ft 469 kts 170°
2026-05-07 08:07 41.05992 -120.42845 33102 ft 467 kts 170°
2026-05-07 08:08 40.99594 -120.41345 33100 ft 467 kts 168°
2026-05-07 08:08 40.93204 -120.39454 33099 ft 468 kts 166°
2026-05-07 08:09 40.86870 -120.37397 33093 ft 469 kts 166°
2026-05-07 08:09 40.80563 -120.35389 33090 ft 469 kts 166°
2026-05-07 08:10 40.74152 -120.33406 33083 ft 469 kts 166°
2026-05-07 08:10 40.67853 -120.31471 33085 ft 468 kts 166°
2026-05-07 08:11 40.61521 -120.29523 33103 ft 467 kts 166°
2026-05-07 08:11 40.55195 -120.27578 33119 ft 468 kts 166°
2026-05-07 08:12 40.48850 -120.25635 33119 ft 468 kts 166°
2026-05-07 08:12 40.42500 -120.23693 33121 ft 468 kts 166°
2026-05-07 08:13 40.36164 -120.21756 33113 ft 466 kts 166°
2026-05-07 08:13 40.29856 -120.19824 33102 ft 465 kts 166°
2026-05-07 08:14 40.23549 -120.17901 33080 ft 466 kts 166°
2026-05-07 08:14 40.17230 -120.15979 33066 ft 466 kts 166°
2026-05-07 08:15 40.10961 -120.14082 33071 ft 466 kts 166°
2026-05-07 08:15 40.04640 -120.12173 33067 ft 466 kts 166°
2026-05-07 08:16 39.98327 -120.10262 33075 ft 465 kts 166°
2026-05-07 08:16 39.92028 -120.08357 33077 ft 465 kts 166°
2026-05-07 08:17 39.85713 -120.06457 33073 ft 466 kts 166°
2026-05-07 08:17 39.79452 -120.04571 33072 ft 465 kts 166°
2026-05-07 08:18 39.73176 -120.02690 33069 ft 465 kts 166°
2026-05-07 08:18 39.66910 -120.00822 33071 ft 465 kts 166°
2026-05-07 08:18 39.63757 -119.99879 33233 ft 465 kts 166°
2026-05-07 08:19 39.60603 -119.98936 33228 ft 465 kts 166°
2026-05-07 08:19 39.54293 -119.97051 33206 ft 465 kts 166°
2026-05-07 08:20 39.47984 -119.95171 33183 ft 465 kts 166°
2026-05-07 08:20 39.41679 -119.93296 33182 ft 465 kts 166°
2026-05-07 08:21 39.35364 -119.91421 33180 ft 465 kts 166°
2026-05-07 08:21 39.29088 -119.89572 33214 ft 462 kts 166°
2026-05-07 08:22 39.22825 -119.87724 33236 ft 462 kts 165°
2026-05-07 08:22 39.16552 -119.85872 33244 ft 463 kts 165°
2026-05-07 08:23 39.10268 -119.84022 33236 ft 462 kts 165°
2026-05-07 08:23 39.04004 -119.82174 33233 ft 461 kts 165°
2026-05-07 08:24 38.97736 -119.80333 33228 ft 463 kts 165°
2026-05-07 08:24 38.91502 -119.78516 33229 ft 463 kts 165°
2026-05-07 08:25 38.85183 -119.76673 33209 ft 462 kts 165°
2026-05-07 08:25 38.78906 -119.74841 33187 ft 463 kts 165°
2026-05-07 08:26 38.69531 -119.72109 33196 ft 463 kts 165°
2026-05-07 08:26 38.63247 -119.70283 33121 ft 463 kts 165°
2026-05-07 08:27 38.56983 -119.68464 33142 ft 461 kts 165°
2026-05-07 08:27 38.50736 -119.66640 33150 ft 460 kts 165°
2026-05-07 08:28 38.44480 -119.64808 33154 ft 462 kts 165°
2026-05-07 08:28 38.38211 -119.62996 33151 ft 462 kts 166°
2026-05-07 08:29 38.31928 -119.61197 33149 ft 463 kts 166°
2026-05-07 08:29 38.25638 -119.59440 33148 ft 463 kts 166°
2026-05-07 08:30 38.19342 -119.57683 33163 ft 464 kts 167°
2026-05-07 08:30 38.13033 -119.55900 33159 ft 465 kts 166°
2026-05-07 08:31 38.06734 -119.54112 33164 ft 465 kts 166°
2026-05-07 08:31 38.00419 -119.52303 33159 ft 465 kts 167°
2026-05-07 08:32 37.94093 -119.50520 33152 ft 466 kts 167°
2026-05-07 08:32 37.87767 -119.48738 33163 ft 465 kts 167°
2026-05-07 08:33 37.81455 -119.46955 33156 ft 466 kts 167°
2026-05-07 08:33 37.75232 -119.45206 33146 ft 467 kts 167°
2026-05-07 08:34 37.68884 -119.43432 33140 ft 468 kts 167°
2026-05-07 08:34 37.62529 -119.41648 33141 ft 468 kts 167°
2026-05-07 08:35 37.56173 -119.39871 33142 ft 468 kts 167°
2026-05-07 08:35 37.49808 -119.38098 33130 ft 468 kts 167°
2026-05-07 08:36 37.43441 -119.36326 33124 ft 469 kts 167°
2026-05-07 08:36 37.37072 -119.34561 33123 ft 469 kts 167°
2026-05-07 08:37 37.30686 -119.32789 33115 ft 469 kts 167°
2026-05-07 08:37 37.24303 -119.31020 33109 ft 470 kts 167°
2026-05-07 08:38 37.19001 -119.29554 33109 ft 470 kts 167°
2026-05-07 08:38 37.12624 -119.27789 33102 ft 469 kts 167°
2026-05-07 08:39 37.06239 -119.26032 33099 ft 469 kts 168°
2026-05-07 08:39 36.99855 -119.24283 33113 ft 471 kts 167°
2026-05-07 08:40 36.93445 -119.22526 33114 ft 472 kts 167°
2026-05-07 08:40 36.87048 -119.20768 33093 ft 470 kts 167°
2026-05-07 08:41 36.80670 -119.19020 33104 ft 469 kts 167°
2026-05-07 08:41 36.74291 -119.17277 33105 ft 469 kts 167°
2026-05-07 08:42 36.67954 -119.15549 33102 ft 469 kts 167°
2026-05-07 08:42 36.61527 -119.13805 33102 ft 471 kts 167°
2026-05-07 08:43 36.55161 -119.12078 33109 ft 472 kts 167°
2026-05-07 08:43 36.48741 -119.10337 33105 ft 472 kts 167°
2026-05-07 08:44 36.42311 -119.08594 33121 ft 473 kts 167°
2026-05-07 08:44 36.35880 -119.06852 33125 ft 472 kts 167°
2026-05-07 08:45 36.29466 -119.05120 33114 ft 471 kts 167°
2026-05-07 08:45 36.23059 -119.03388 33115 ft 472 kts 167°
2026-05-07 08:46 36.16636 -119.01637 33123 ft 473 kts 167°
2026-05-07 08:46 36.10198 -118.99912 33127 ft 474 kts 167°
2026-05-07 08:47 36.03741 -118.98228 33134 ft 474 kts 167°
2026-05-07 08:47 35.97447 -118.96562 33135 ft 475 kts 167°
2026-05-07 08:48 35.90991 -118.94835 33135 ft 474 kts 167°
2026-05-07 08:48 35.84563 -118.93121 33129 ft 472 kts 167°
2026-05-07 08:49 35.78185 -118.91424 33127 ft 472 kts 167°
2026-05-07 08:49 35.71749 -118.89714 33129 ft 473 kts 167°
2026-05-07 08:50 35.65304 -118.88013 33128 ft 474 kts 167°
2026-05-07 08:50 35.58865 -118.86316 33121 ft 474 kts 167°
2026-05-07 08:51 35.52414 -118.84613 33120 ft 473 kts 167°
2026-05-07 08:51 35.45981 -118.82917 33121 ft 472 kts 167°
2026-05-07 08:52 35.39562 -118.81229 33127 ft 472 kts 167°
2026-05-07 08:52 35.33135 -118.79541 33129 ft 473 kts 167°
2026-05-07 08:53 35.26699 -118.77855 33120 ft 473 kts 167°
2026-05-07 08:53 35.20256 -118.76178 33118 ft 473 kts 167°
2026-05-07 08:54 35.13807 -118.74492 33166 ft 474 kts 167°
2026-05-07 08:54 35.07403 -118.72820 33170 ft 473 kts 167°
2026-05-07 08:55 35.01007 -118.71156 33161 ft 472 kts 166°
2026-05-07 08:55 34.94579 -118.69485 33144 ft 472 kts 166°
2026-05-07 08:56 34.88157 -118.67816 33120 ft 471 kts 167°
2026-05-07 08:56 34.81737 -118.66147 33112 ft 472 kts 166°
2026-05-07 08:57 34.75304 -118.64484 33099 ft 473 kts 166°
2026-05-07 08:57 34.68864 -118.62818 33091 ft 473 kts 166°
2026-05-07 08:58 34.62429 -118.61152 33085 ft 473 kts 166°
2026-05-07 08:58 34.56252 -118.58566 33092 ft 469 kts 148°
2026-05-07 08:59 34.50689 -118.54476 33079 ft 466 kts 145°
2026-05-07 08:59 34.45173 -118.50353 33076 ft 465 kts 146°
2026-05-07 09:00 34.39612 -118.46336 33083 ft 468 kts 147°
2026-05-07 09:00 34.33968 -118.42347 33076 ft 470 kts 147°
2026-05-07 09:01 34.28316 -118.38363 33076 ft 469 kts 147°
2026-05-07 09:01 34.22684 -118.34386 33108 ft 469 kts 147°
2026-05-07 09:02 34.17102 -118.30447 33101 ft 467 kts 147°
2026-05-07 09:02 34.11496 -118.26496 33098 ft 466 kts 147°
2026-05-07 09:03 34.05888 -118.22543 33094 ft 467 kts 147°
2026-05-07 09:03 34.00277 -118.18594 33095 ft 467 kts 147°
2026-05-07 09:04 33.94674 -118.14655 33091 ft 465 kts 147°
2026-05-07 09:04 33.89088 -118.10733 33091 ft 464 kts 147°
2026-05-07 09:05 33.83494 -118.06823 33074 ft 466 kts 147°
2026-05-07 09:05 33.77805 -118.03052 32667 ft 471 kts 148°
2026-05-07 09:06 33.74896 -118.01155 32144 ft 466 kts 148°
2026-05-07 09:06 33.72099 -117.99328 31533 ft 461 kts 148°
2026-05-07 09:06 33.69298 -117.97491 30896 ft 457 kts 148°
2026-05-07 09:06 33.66518 -117.95659 30215 ft 455 kts 148°
2026-05-07 09:07 33.63753 -117.93830 29407 ft 453 kts 148°
2026-05-07 09:07 33.61003 -117.92013 28645 ft 450 kts 148°
2026-05-07 09:07 33.58273 -117.90209 27926 ft 446 kts 148°
2026-05-07 09:07 33.55566 -117.88422 27228 ft 441 kts 148°
2026-05-07 09:08 33.52921 -117.86671 26595 ft 427 kts 148°
2026-05-07 09:08 33.50370 -117.84951 25995 ft 414 kts 147°
2026-05-07 09:08 33.47900 -117.83263 25397 ft 405 kts 147°
2026-05-07 09:08 33.45463 -117.81589 24791 ft 403 kts 147°
2026-05-07 09:09 33.43122 -117.79758 24189 ft 399 kts 137°
2026-05-07 09:09 33.41025 -117.77609 23566 ft 397 kts 134°
2026-05-07 09:09 33.39004 -117.75366 22873 ft 395 kts 133°
2026-05-07 09:09 33.37002 -117.73123 22239 ft 393 kts 133°
2026-05-07 09:10 33.35003 -117.70899 21628 ft 390 kts 133°
2026-05-07 09:10 33.33014 -117.68713 21053 ft 387 kts 134°
2026-05-07 09:10 33.31033 -117.66567 20477 ft 384 kts 134°
2026-05-07 09:10 33.29053 -117.64445 19900 ft 381 kts 134°
2026-05-07 09:11 33.27081 -117.62347 19323 ft 378 kts 135°
2026-05-07 09:11 33.25116 -117.60265 18741 ft 376 kts 135°
2026-05-07 09:11 33.23178 -117.58219 18072 ft 376 kts 135°
2026-05-07 09:11 33.21221 -117.56169 17368 ft 372 kts 135°
2026-05-07 09:12 33.19303 -117.54171 16671 ft 359 kts 135°
2026-05-07 09:12 33.17452 -117.52244 16068 ft 347 kts 135°
2026-05-07 09:12 33.15667 -117.50383 15486 ft 335 kts 135°
2026-05-07 09:12 33.13931 -117.48569 14939 ft 331 kts 136°
2026-05-07 09:13 33.12117 -117.46874 14546 ft 331 kts 140°
2026-05-07 09:13 33.10233 -117.45300 14197 ft 330 kts 141°
2026-05-07 09:13 33.08343 -117.43762 13819 ft 330 kts 141°
2026-05-07 09:13 33.06449 -117.42227 13404 ft 329 kts 141°
2026-05-07 09:14 33.04565 -117.40696 13001 ft 327 kts 141°
2026-05-07 09:14 33.02688 -117.39154 12541 ft 326 kts 141°
2026-05-07 09:14 33.00843 -117.37628 12092 ft 322 kts 141°
2026-05-07 09:14 32.99024 -117.36114 11735 ft 314 kts 140°
2026-05-07 09:15 32.97271 -117.34653 11502 ft 303 kts 140°
2026-05-07 09:15 32.95576 -117.33237 11157 ft 291 kts 140°
2026-05-07 09:15 32.93960 -117.31887 10825 ft 277 kts 140°
2026-05-07 09:15 32.92423 -117.30600 10536 ft 264 kts 140°
2026-05-07 09:16 32.90944 -117.29364 10340 ft 255 kts 140°
2026-05-07 09:16 32.89485 -117.28143 10273 ft 260 kts 140°
2026-05-07 09:16 32.88001 -117.26897 10162 ft 264 kts 139°
2026-05-07 09:16 32.86480 -117.25615 9735 ft 271 kts 140°
2026-05-07 09:17 32.84967 -117.24347 9358 ft 261 kts 140°
2026-05-07 09:17 32.83499 -117.23125 9060 ft 256 kts 140°
2026-05-07 09:17 32.82111 -117.21830 8801 ft 251 kts 129°
2026-05-07 09:17 32.81122 -117.20177 8594 ft 250 kts 111°
2026-05-07 09:18 32.80504 -117.18228 8088 ft 254 kts 104°
2026-05-07 09:18 32.80008 -117.16238 7808 ft 246 kts 103°
2026-05-07 09:18 32.79551 -117.14280 7517 ft 246 kts 102°
2026-05-07 09:18 32.79119 -117.12314 7176 ft 246 kts 102°
2026-05-07 09:19 32.78694 -117.10316 6809 ft 247 kts 101°
2026-05-07 09:19 32.78277 -117.08336 6418 ft 248 kts 101°
2026-05-07 09:19 32.77855 -117.06396 6192 ft 243 kts 105°
2026-05-07 09:19 32.77266 -117.04585 6073 ft 226 kts 111°
2026-05-07 09:20 32.76624 -117.02961 6017 ft 209 kts 112°
2026-05-07 09:20 32.76014 -117.01463 5973 ft 196 kts 112°
2026-05-07 09:20 32.75429 -117.00021 5980 ft 192 kts 112°
2026-05-07 09:20 32.74871 -116.98585 5961 ft 191 kts 109°
2026-05-07 09:21 32.74108 -116.97237 5340 ft 213 kts 142°
2026-05-07 09:21 32.72717 -116.96686 5099 ft 207 kts 185°
2026-05-07 09:21 32.71441 -116.97256 5027 ft 192 kts 226°
2026-05-07 09:21 32.70796 -116.98538 4966 ft 176 kts 257°
2026-05-07 09:22 32.70446 -116.99933 4616 ft 184 kts 258°
2026-05-07 09:22 32.70094 -117.01471 3978 ft 201 kts 259°
2026-05-07 09:22 32.69781 -117.03117 3416 ft 207 kts 265°
2026-05-07 09:22 32.69955 -117.04763 3036 ft 196 kts 291°
2026-05-07 09:23 32.70321 -117.06310 2570 ft 200 kts 285°
2026-05-07 09:23 32.70650 -117.07903 2289 ft 196 kts 286°
2026-05-07 09:23 32.71030 -117.09446 1931 ft 193 kts 289°
2026-05-07 09:23 32.71440 -117.10943 1589 ft 185 kts 285°
2026-05-07 09:24 32.71757 -117.12338 1284 ft 168 kts 284°
2026-05-07 09:24 32.72049 -117.13626 982 ft 158 kts 287°
2026-05-07 09:24 32.72354 -117.14837 696 ft 149 kts 285°
2026-05-07 09:24 32.72637 -117.16003 454 ft 148 kts 285°
2026-05-07 09:25 32.72920 -117.17179 244 ft 149 kts 285°
2026-05-07 09:25 32.73208 -117.18345 39 ft 143 kts 285°
2026-05-07 09:25 32.73449 -117.19348 25 ft 106 kts 285°
2026-05-07 09:25 32.73606 -117.19995 24 ft 60 kts 286°
2026-05-07 09:26 32.73682 -117.20309 24 ft 23 kts 286°
2026-05-07 09:26 32.73652 -117.20413 23 ft 9 kts 203°
2026-05-07 09:26 32.73600 -117.20396 24 ft 8 kts 120°
2026-05-07 09:26 32.73582 -117.20324 23 ft 10 kts 105°
2026-05-07 09:27 32.73561 -117.20255 23 ft 9 kts 125°
2026-05-07 09:27 32.73506 -117.20242 23 ft 9 kts 192°
2026-05-07 09:27 32.73439 -117.20262 23 ft 4 kts 197°
2026-05-07 09:28 32.73407 -117.20273 23 ft 8 kts 196°
2026-05-07 09:28 32.73348 -117.20272 23 ft 9 kts 167°
2026-05-07 09:28 32.73310 -117.20278 23 ft 4 kts 234°
2026-05-07 09:28 32.73301 -117.20315 25 ft 5 kts 259°
2026-05-07 09:29 32.73297 -117.20344 23 ft 0 kts 260°
2026-05-07 09:47 32.72061 -117.13670 968 ft 157 kts 287°
2026-05-07 09:48 32.73097 -117.17898 101 ft 146 kts 286°
2026-05-07 09:48 32.73366 -117.19001 25 ft 126 kts 287°
2026-05-07 09:48 32.72868 -117.16961 283 ft 148 kts 285°
2026-05-07 09:48 32.73155 -117.18132 54 ft 145 kts 286°
2026-05-07 09:49 32.73158 -117.18145 54 ft 145 kts 286°
2026-05-07 09:49 32.73257 -117.18553 32 ft 139 kts 286°
2026-05-07 09:49 32.73489 -117.19517 24 ft 95 kts 286°
2026-05-07 09:49 32.73297 -117.20344 23 ft 0 kts 260°